Meteo Giornale » Osservazioni meteo Italia » Brescia-Montichiari

ore: 14:50 - Osservazioni Meteo Brescia-Montichiari
Lat. 45° 24' N Lon. 10° 18' E Alt. 104 metri s.l.m.

molto_nuvoloso Europe/Rome

23 °C

Molto Nuvoloso

Temp. 24 Ore

15 °C

24 °C

Sud/Sud-Est

11.1 Km/h

Dew point 14 °C

Umidità 56 %

Visibilità  10 Km

Il sole sorge alle ore 05:35

Il sole tramonta alle ore 20:55

Data e Ora Cielo e Fenomeni T °C DP °C Um. % Pres. hPa Vis. km Vento km/h
Oggi h: 14:50 molto_nuvoloso Molto Nuvoloso 23 14 56 1014 10 S/SE 11.1
Oggi h: 13:50 nuvoloso Nuvoloso 23 13 53 1014 10 E 11.1
Oggi h: 12:50 nuvoloso Nuvoloso 22 13 56 1015 10 N 3.7
Oggi h: 11:50 sereno Sereno 22 13 56 1015 10 N/NE 11.1
Oggi h: 10:50 molto_nuvoloso Molto Nuvoloso 20 12 59 1015 10 E 25.9
Oggi h: 09:50 molto_nuvoloso Molto Nuvoloso 18 13 72 1015 10 E/NE 9.3
Oggi h: 08:50 molto_nuvoloso Molto Nuvoloso 17 13 77 1015 10 E/NE 7.4
Oggi h: 07:50 molto_nuvoloso Molto Nuvoloso 16 13 82 1014 10 E/NE 13
Oggi h: 06:50 molto_nuvoloso Molto Nuvoloso 16 13 82 1014 10 E/NE 18.5
Oggi h: 05:50 molto_nuvoloso Molto Nuvoloso 16 13 82 1014 10 E/NE 14.8
Oggi h: 03:50 foschia Foschia 16 15 93 1014 5 N/NE 7.4
Oggi h: 02:50 foschia Foschia 16 15 93 1014 3 N/NO 7.4
Oggi h: 01:50 foschia Foschia 16 15 93 1014 5 O/SO 7.4
Oggi h: 00:50 nuvoloso Nuvoloso 16 15 93 1015 10 N 3.7
Ieri h: 23:50 molto_nuvoloso Molto Nuvoloso 16 15 93 1015 10 NE 9.3
Ieri h: 22:50 coperto_pioggia Pioggia Debole 16 15 93 1015 10 NE 9.3
Ieri h: 21:50 molto_nuvoloso Molto Nuvoloso 16 15 93 1015 10 N/NO 11.1
Ieri h: 20:50 nuvoloso_temporali Temporale con Pioggia 15 14 93 1015 5 NO 24
Ieri h: 19:50 nuvoloso_temporali Temporale con Pioggia 17 15 88 1014 5 O 20.3
Ieri h: 18:50 molto_nuvoloso Molto Nuvoloso 20 13 64 1014 10 E/SE 14.8
Ieri h: 17:50 sereno Sereno 22 12 53 1013 10 E 14.8
Ieri h: 16:50 sereno Sereno 24 13 50 1013 10 E 14.8
Ieri h: 15:50 sereno Sereno 23 12 49 1013 10 E/NE 16.7